Location: Deneb Observatory
(47.2267°N, 100.4953°W)
Time: 11:51:37
(UTC-06:00)

Amateur Radio Satellites - All Passes

Search period start: 06 December 2016 11:21
Search period end: 07 December 2016 11:21
Location: Deneb Observatory, 47.2267°N, 100.4953°W

Satellite Date Start Highest point End Downlink Frequencies (MHz)
Time Altitude Azimuth
ANTELSAT 06 Dec 11:21:52 11:24:52 17° 270° (W) 11:27:52 437.575/2403.000
NANOSAT C BR1 06 Dec 11:22:16 11:26:31 75° 75° (ENE) 11:30:49 145.865
RS-15 06 Dec 11:25:29 11:36:39 40° 340° (NNW) 11:48:05 29.354- 29.394
QB50P2 06 Dec 11:28:23 11:32:41 84° 259° (WSW) 11:37:00 145.880/145.840
POLYITAN 1 06 Dec 11:28:54 11:33:12 87° 252° (WSW) 11:37:32 437.675
QB50P1 06 Dec 11:41:56 11:46:11 65° 258° (WSW) 11:50:28 145.935-145.965
GONETS M04 06 Dec 11:42:41 11:51:09 51° 72° (ENE) 11:59:34
DUCHIFAT 1 06 Dec 11:44:21 11:48:36 71° 258° (WSW) 11:52:53 145.980
SPROUT 06 Dec 11:54:35 11:56:40 13° 89° (E) 11:58:44 437.525
AO-85 06 Dec 11:59:31 12:02:51 26° 244° (WSW) 12:06:06 145.980
POPSAT HIP 1 06 Dec 12:03:48 12:07:50 39° 262° (W) 12:11:53 437.405
AO-7 06 Dec 12:04:07 12:06:07 11° 29° (NNE) 12:08:07 29.400- 29.500
50 SAT 06 Dec 12:04:50 12:07:20 18° 93° (E) 12:09:48 437.505
ESTCUBE 1 06 Dec 12:16:07 12:20:39 74° 102° (ESE) 12:25:11 437.505/2401.250
AISAT 06 Dec 12:21:29 12:25:41 38° 98° (E) 12:29:50 437.250
JAS-2 06 Dec 12:22:13 12:27:37 29° 265° (W) 12:32:34 435.910
Gurwin Techsat 1B 06 Dec 12:23:39 12:27:32 21° 59° (ENE) 12:31:26 435.225
Oscar 19 06 Dec 12:23:56 12:28:33 35° 65° (ENE) 12:33:12 437.125/150
PCSat 06 Dec 12:24:48 12:30:14 81° 120° (ESE) 12:35:41 145.827
HUMSAT D 06 Dec 12:35:39 12:37:19 12° 301° (WNW) 12:38:59 437.325/437.525
BUGSAT 1 06 Dec 12:40:11 12:44:15 45° 261° (W) 12:48:22 437.445
CUBEBUG 1 06 Dec 12:46:32 12:51:01 87° 284° (WNW) 12:55:27 437.445
BEESAT 3 06 Dec 12:54:33 12:57:57 26° 40° (NE) 13:01:19 437.485
ITAMSAT 1 06 Dec 12:57:02 12:58:24 11° 51° (NE) 12:59:45 435.822/435.867
VELOX 1 06 Dec 12:58:12 13:02:43 84° 105° (ESE) 13:07:10 145.980
NANOSAT C BR1 06 Dec 13:01:06 13:02:46 12° 272° (W) 13:04:26 145.865
Cosmos 2499 06 Dec 13:01:13 13:09:40 59° 269° (W) 13:17:32 435.465 / 435.565
DX 1 06 Dec 13:10:22 13:14:44 61° 101° (ESE) 13:19:04 434.975-435.025
TISAT 1 06 Dec 13:14:47 13:17:24 16° 91° (E) 13:19:59 437.305
UKube-1 06 Dec 13:16:49 13:21:05 53° 100° (E) 13:25:20 .
BEESAT 2 06 Dec 13:24:26 13:27:51 25° 40° (NE) 13:31:14 435.950
SPROUT 06 Dec 13:28:46 13:33:03 68° 287° (WNW) 13:37:18 437.525
50 SAT 06 Dec 13:37:29 13:40:44 34° 290° (WNW) 13:43:59 437.505
GONETS M04 06 Dec 13:39:52 13:47:48 41° 274° (W) 13:55:44
RS-15 06 Dec 13:42:14 13:53:23 37° 14° (NNE) 14:04:29 29.354- 29.394
AO-7 06 Dec 13:49:09 13:56:26 36° 54° (NE) 14:03:43 29.400- 29.500
ESTCUBE 1 06 Dec 13:54:20 13:56:55 15° 301° (WNW) 13:59:29 437.505/2401.250
AISAT 06 Dec 13:58:16 14:01:59 26° 296° (WNW) 14:05:41 437.250
Gurwin Techsat 1B 06 Dec 14:01:42 14:07:00 67° 258° (WSW) 14:12:19 435.225
Oscar 19 06 Dec 14:03:13 14:07:51 34° 264° (W) 14:12:33 437.125/150
PCSat 06 Dec 14:09:56 14:14:17 24° 323° (NW) 14:18:37 145.827
AUBIESAT-1 06 Dec 14:15:59 14:16:49 10° 91° (E) 14:17:40 437.475
CUBEBUG 1 06 Dec 14:24:53 14:26:35 12° 303° (WNW) 14:28:15 437.445
M-CUBED/EXP-1 PRIME 06 Dec 14:26:41 14:29:48 17° 95° (E) 14:32:50 437.505
ITAMSAT 1 06 Dec 14:31:43 14:36:52 62° 70° (ENE) 14:42:01 435.822/435.867
BEESAT 3 06 Dec 14:31:56 14:35:45 44° 239° (WSW) 14:39:32 437.485
VELOX 1 06 Dec 14:36:21 14:38:32 14° 302° (WNW) 14:40:43 145.980
DX 1 06 Dec 14:47:38 14:50:29 17° 300° (WNW) 14:53:20 434.975-435.025
TISAT 1 06 Dec 14:49:13 14:53:23 55° 288° (WNW) 14:57:29 437.305
UKube-1 06 Dec 14:53:44 14:56:45 19° 299° (WNW) 14:59:46 .
SWISSCUBE 06 Dec 14:54:51 14:59:19 38° 98° (E) 15:03:43 437.505
Cosmos 2499 06 Dec 14:57:52 15:00:43 12° 292° (WNW) 15:03:32 435.465 / 435.565
BEESAT 06 Dec 14:58:51 15:03:18 38° 98° (E) 15:07:42 436.000
BEESAT 2 06 Dec 15:01:57 15:05:51 47° 239° (WSW) 15:09:42 435.950
O/OREOS (USA 219) 06 Dec 15:18:39 15:20:09 11° 97° (E) 15:21:38 437.305
ITUPSAT 1 06 Dec 15:26:40 15:31:25 68° 103° (ESE) 15:36:09 437.325
AO-7 06 Dec 15:40:30 15:48:44 66° 255° (WSW) 15:57:03 29.400- 29.500
AUBIESAT-1 06 Dec 15:47:17 15:51:57 83° 111° (ESE) 15:56:24 437.475
Cosmos 2491 06 Dec 15:49:58 15:51:29 10° 43° (NE) 15:52:59 435.465 / 435.565
AIST 2 06 Dec 15:55:31 15:59:08 27° 40° (NE) 16:02:45 435.215
RS-15 06 Dec 15:56:18 16:08:42 67° 45° (NE) 16:20:47 29.354- 29.394
M-CUBED/EXP-1 PRIME 06 Dec 15:59:59 16:04:40 64° 293° (WNW) 16:09:10 437.505
GOMX 1 06 Dec 16:00:03 16:02:02 13° 54° (NE) 16:04:06 467.674
MOZHAYETS 4 06 Dec 16:00:38 16:04:58 41° 98° (E) 16:09:15
CUTE-I 06 Dec 16:12:56 16:15:02 12° 52° (NE) 16:17:08 437.470
ITAMSAT 1 06 Dec 16:12:58 16:16:44 20° 269° (W) 16:20:32 435.822/435.867
BRITE-PL 06 Dec 16:24:12 16:28:14 38° 68° (ENE) 16:32:35 437.365/2234.400
NOAA 18 06 Dec 16:26:42 16:28:41 12° 50° (NE) 16:30:41 137.9125
KKS-1 06 Dec 16:27:19 16:31:22 32° 96° (E) 16:35:23 437.445
NOAA 15 06 Dec 16:32:18 16:35:50 19° 57° (ENE) 16:39:22 137.62
STARS 06 Dec 16:32:32 16:35:35 18° 91° (E) 16:38:36 437.465
SWISSCUBE 06 Dec 16:32:55 16:36:57 28° 296° (WNW) 16:40:59 437.505
BEESAT 06 Dec 16:36:53 16:40:58 29° 296° (WNW) 16:45:01 436.000
Cubesat XI-IV 06 Dec 16:37:10 16:40:50 19° 57° (ENE) 16:44:30 437.490
HORYU 2 06 Dec 16:42:24 16:46:44 49° 70° (ENE) 16:51:04 437.375
O/OREOS (USA 219) 06 Dec 16:54:16 16:58:51 86° 300° (WNW) 17:03:24 437.305
ITUPSAT 1 06 Dec 17:05:36 17:08:45 18° 301° (WNW) 17:11:53 437.325
LilacSat-2 06 Dec 17:16:43 17:20:02 28° 68° (ENE) 17:23:21 437.200
ISS 06 Dec 17:18:02 17:21:14 51° 148° (SSE) 17:24:28 145.825
AUBIESAT-1 06 Dec 17:22:56 17:25:42 16° 308° (NW) 17:28:26 437.475
CINEMA 3 06 Dec 17:23:51 17:24:36 10° 53° (NE) 17:25:20 145.822/145.860
HO-68 06 Dec 17:30:42 17:35:26 19° 49° (NE) 17:40:10 435.675
AIST 2 06 Dec 17:33:45 17:37:50 48° 239° (WSW) 17:41:54 435.215
GOMX 1 06 Dec 17:34:34 17:39:12 79° 74° (ENE) 17:44:13 467.674
M-CUBED/EXP-1 PRIME 06 Dec 17:36:44 17:38:12 11° 312° (NW) 17:39:40 437.505
MOZHAYETS 4 06 Dec 17:38:13 17:41:56 25° 296° (WNW) 17:45:37
AO-7 06 Dec 17:39:15 17:43:08 14° 276° (W) 17:47:03 29.400- 29.500
CUBESAT XI-V 06 Dec 17:41:34 17:46:14 66° 102° (ESE) 17:50:53 437.345
DOVE 4 06 Dec 17:42:07 17:46:44 44° 69° (ENE) 17:51:37 437.250
Cosmos 2491 06 Dec 17:43:00 17:51:17 44° 70° (ENE) 17:59:30 435.465 / 435.565
PCSat 06 Dec 17:44:49 17:45:58 11° 15° (NNE) 17:47:06 145.827
CUTE-I 06 Dec 17:48:48 17:54:07 67° 71° (ENE) 17:59:28 437.470
NOAA 18 06 Dec 18:02:49 18:08:16 61° 70° (ENE) 18:13:46 137.9125
BRITE-PL 06 Dec 18:03:20 18:06:54 24° 268° (W) 18:10:42 437.365/2234.400
KKS-1 06 Dec 18:03:57 18:07:52 30° 294° (WNW) 18:11:47 437.445
STARS 06 Dec 18:07:55 18:12:15 52° 289° (WNW) 18:16:32 437.465
RS-15 06 Dec 18:09:24 18:20:49 47° 250° (WSW) 18:31:54 29.354- 29.394
NOAA 15 06 Dec 18:09:47 18:15:02 75° 256° (WSW) 18:20:18 137.62
Cubesat XI-IV 06 Dec 18:14:56 18:20:18 77° 256° (WSW) 18:25:43 437.490
YUBILEINY 06 Dec 18:15:53 18:22:31 25° 78° (ENE) 18:29:12 435.215
HORYU 2 06 Dec 18:20:18 18:23:33 20° 268° (W) 18:26:49 437.375
O/OREOS (USA 219) 06 Dec 18:36:27 18:38:58 14° 316° (NW) 18:41:28 437.305
LilacSat-2 06 Dec 18:51:05 18:54:19 25° 265° (W) 18:57:34 437.200
CUTE 1.7 + AOD 2 06 Dec 18:53:32 18:57:19 33° 68° (ENE) 19:01:07 437.475
ISS 06 Dec 18:54:36 18:57:48 45° 347° (NNW) 19:01:01 145.825
CINEMA 3 06 Dec 18:55:49 19:00:42 61° 72° (ENE) 19:05:41 145.822/145.860
Cosmos 2504 06 Dec 18:59:40 19:05:57 24° 77° (ENE) 19:12:25 435.465 / 435.565
CUBEBUG 2 06 Dec 19:10:35 19:14:30 26° 65° (ENE) 19:18:21 437.445
CANX-2 06 Dec 19:11:16 19:15:24 58° 73° (ENE) 19:19:33 2200.000
AAUSAT CUBESAT 2 06 Dec 19:14:41 19:17:48 21° 65° (ENE) 19:20:56 437.432
HO-68 06 Dec 19:14:55 19:22:03 76° 70° (ENE) 19:29:15 435.675
GOMX 1 06 Dec 19:15:45 19:18:02 13° 275° (W) 19:20:23 467.674
CUBESAT XI-V 06 Dec 19:20:06 19:23:08 17° 300° (WNW) 19:26:10 437.345
DOVE 4 06 Dec 19:20:33 19:24:37 26° 268° (W) 19:28:53 437.250
PCSat 06 Dec 19:26:41 19:31:20 27° 40° (NE) 19:35:57 145.827
CUTE-I 06 Dec 19:30:55 19:34:40 19° 270° (W) 19:38:25 437.470
Oscar 11 06 Dec 19:33:43 19:36:18 16° 61° (ENE) 19:38:53 145.826/435.025
SEEDS 06 Dec 19:35:18 19:39:25 62° 73° (ENE) 19:43:33 437.485
Cosmos 2491 06 Dec 19:40:01 19:48:12 48° 272° (W) 19:56:23 435.465 / 435.565
COMPASS 1 06 Dec 19:44:31 19:48:32 53° 72° (ENE) 19:52:34 437.405
NOAA 18 06 Dec 19:45:07 19:49:21 22° 268° (W) 19:53:37 137.9125
UWE-3 06 Dec 19:51:07 19:55:27 40° 69° (ENE) 19:59:43 435.000/436.395/437.385
NOAA 15 06 Dec 19:54:45 19:55:42 10° 275° (W) 19:56:41 137.62
STRAND 1 06 Dec 19:56:59 20:02:01 56° 101° (E) 20:07:01 437.568
AIST 1 06 Dec 19:57:04 20:01:07 41° 92° (E) 20:05:13
Cubesat XI-IV 06 Dec 19:59:41 20:01:16 11° 275° (W) 20:02:51 437.490
DELFI C3 06 Dec 20:09:00 20:10:32 12° 60° (ENE) 20:12:06 145.870
YUBILEINY 06 Dec 20:09:38 20:18:20 79° 280° (W) 20:27:10 435.215
CUTE 1.7 + AOD 2 06 Dec 20:29:42 20:33:12 25° 266° (W) 20:36:44 437.475
ZACube-1 06 Dec 20:30:27 20:34:56 60° 73° (ENE) 20:39:21 437.345
ISS 06 Dec 20:31:36 20:34:44 38° 7° (N) 20:37:53 145.825
SO-50 06 Dec 20:31:59 20:36:35 49° 121° (ESE) 20:41:07 436.795
CINEMA 3 06 Dec 20:34:42 20:38:14 19° 271° (W) 20:41:48 145.822/145.860
FUNcube-1 06 Dec 20:37:43 20:42:13 66° 74° (ENE) 20:46:39 145.935
CUSAT 1 06 Dec 20:45:21 20:48:53 84° 78° (ENE) 20:53:31 437.405
CUBEBUG 2 06 Dec 20:46:22 20:50:54 43° 262° (W) 20:55:24 437.445
AAUSAT CUBESAT 2 06 Dec 20:49:11 20:53:03 40° 262° (W) 20:56:56 437.432
CANX-2 06 Dec 20:49:13 20:51:38 15° 270° (W) 20:54:03 2200.000
Cosmos 2504 06 Dec 20:49:44 20:58:11 86° 278° (W) 21:07:08 435.465 / 435.565
HO-68 06 Dec 21:04:58 21:10:29 24° 269° (W) 21:16:04 435.675
Oscar 11 06 Dec 21:07:40 21:11:57 65° 258° (WSW) 21:16:16 145.826/435.025
PCSat 06 Dec 21:09:46 21:15:11 66° 241° (WSW) 21:20:32 145.827
SEEDS 06 Dec 21:13:25 21:15:31 14° 271° (W) 21:17:39 437.485
COMPASS 1 06 Dec 21:21:54 21:24:25 16° 270° (W) 21:26:56 437.405
UWE-3 06 Dec 21:28:08 21:32:00 26° 266° (W) 21:35:51 435.000/436.395/437.385
AIST 1 06 Dec 21:35:36 21:38:54 21° 291° (WNW) 21:42:15
STRAND 1 06 Dec 21:36:53 21:40:50 23° 299° (WNW) 21:44:46 437.568
DANDE 06 Dec 21:39:14 21:41:59 79° 80° (E) 21:45:16 436.750
DELFI C3 06 Dec 21:40:54 21:44:48 73° 258° (WSW) 21:48:45 145.870
ESTCUBE 1 06 Dec 21:44:36 21:46:43 13° 58° (ENE) 21:48:50 437.505/2401.250
PRISM 06 Dec 21:50:01 21:54:08 57° 102° (ESE) 21:58:14 437.425
HUMSAT D 06 Dec 21:51:52 21:56:04 78° 74° (ENE) 22:00:14 437.325/437.525
ISS 06 Dec 22:08:08 22:11:28 83° 203° (SSW) 22:14:46 145.825
ZACube-1 06 Dec 22:08:44 22:11:34 16° 270° (W) 22:14:25 437.345
YUBILEINY 06 Dec 22:10:43 22:16:47 20° 305° (NW) 22:22:56 435.215
CUBEBUG 1 06 Dec 22:11:20 22:13:47 15° 59° (ENE) 22:16:14 437.445
SO-50 06 Dec 22:13:02 22:17:15 31° 320° (NW) 22:21:25 436.795
FUNcube-1 06 Dec 22:16:19 22:18:52 15° 271° (W) 22:21:25 145.935
VELOX 1 06 Dec 22:24:20 22:26:42 14° 58° (ENE) 22:29:05 145.980
DX 1 06 Dec 22:36:27 22:37:27 11° 55° (NE) 22:38:27 434.975-435.025
UNISAT 6 06 Dec 22:37:03 22:41:17 43° 98° (E) 22:45:23 437.425
50 SAT 06 Dec 22:44:01 22:45:43 13° 62° (ENE) 22:47:26 437.505
Cosmos 2504 06 Dec 22:46:35 22:53:03 23° 303° (WNW) 22:59:44 435.465 / 435.565
SPROUT 06 Dec 22:50:52 22:53:35 17° 61° (ENE) 22:56:17 437.525
TIGRISAT 06 Dec 23:06:41 23:11:08 81° 103° (ESE) 23:15:27 435.000
ANTELSAT 06 Dec 23:08:23 23:12:49 88° 97° (E) 23:17:09 437.575/2403.000
QB50P2 06 Dec 23:11:52 23:13:50 13° 89° (E) 23:15:47 145.880/145.840
POLYITAN 1 06 Dec 23:12:33 23:14:19 12° 88° (E) 23:16:04 437.675
ESTCUBE 1 06 Dec 23:18:23 23:22:52 85° 256° (WSW) 23:27:23 437.505/2401.250
AISAT 06 Dec 23:21:28 23:25:43 49° 70° (ENE) 23:30:02 437.250
QB50P1 06 Dec 23:24:31 23:27:15 16° 91° (E) 23:29:56 145.935-145.965
PRISM 06 Dec 23:26:22 23:29:01 17° 299° (WNW) 23:31:39 437.425
DUCHIFAT 1 06 Dec 23:26:34 23:28:59 15° 90° (E) 23:31:22 145.980
JAS-2 06 Dec 23:26:43 23:31:12 28° 95° (E) 23:35:49 435.910
HUMSAT D 06 Dec 23:31:03 23:32:12 11° 272° (W) 23:33:21 437.325/437.525
CUBEBUG 1 06 Dec 23:45:08 23:49:30 72° 257° (WSW) 23:53:55 437.445
POPSAT HIP 1 06 Dec 23:45:29 23:49:04 26° 94° (E) 23:52:37 437.405
ISS 06 Dec 23:45:29 23:47:32 15° 224° (SW) 23:49:35 145.825
Cosmos 2499 06 Dec 23:49:00 23:55:47 27° 79° (ENE) 00:02:41 435.465 / 435.565
SO-50 06 Dec 23:57:42 23:59:11 11° 343° (NNW) 00:00:40 436.795
VELOX 1 06 Dec 23:58:09 00:02:34 77° 257° (WSW) 00:07:02 145.980
DX 1 07 Dec 00:08:31 00:12:52 78° 74° (ENE) 00:17:15 434.975-435.025
TISAT 1 07 Dec 00:09:14 00:12:15 19° 62° (ENE) 00:15:15 437.305
UKube-1 07 Dec 00:13:56 00:18:12 68° 73° (ENE) 00:22:32 .
UNISAT 6 07 Dec 00:14:19 00:17:44 22° 297° (WNW) 00:21:06 437.425
50 SAT 07 Dec 00:15:12 00:18:37 51° 260° (W) 00:22:04 437.505
BUGSAT 1 07 Dec 00:19:20 00:22:32 21° 93° (E) 00:25:41 437.445
SPROUT 07 Dec 00:24:47 00:29:03 61° 258° (WSW) 00:33:21 437.525
NANOSAT C BR1 07 Dec 00:39:04 00:43:20 89° 121° (ESE) 00:47:33 145.865
TIGRISAT 07 Dec 00:45:04 00:47:10 13° 302° (WNW) 00:49:15 435.000
QB50P2 07 Dec 00:45:52 00:50:07 68° 286° (WNW) 00:54:18 145.880/145.840
POLYITAN 1 07 Dec 00:46:22 00:50:38 71° 285° (WNW) 00:54:48 437.675
ANTELSAT 07 Dec 00:47:03 00:48:50 12° 303° (WNW) 00:50:36 437.575/2403.000
GONETS M04 07 Dec 00:47:34 00:55:52 52° 89° (E) 01:04:10
QB50P1 07 Dec 00:59:11 01:03:21 53° 288° (WNW) 01:07:27 145.935-145.965
AISAT 07 Dec 00:59:17 01:02:28 19° 268° (W) 01:05:41 437.250
ITUPSAT 1 07 Dec 01:00:50 01:03:47 17° 58° (ENE) 01:06:44 437.325
DUCHIFAT 1 07 Dec 01:00:53 01:05:03 58° 288° (WNW) 01:09:10 145.980
AUBIESAT-1 07 Dec 01:02:19 01:05:37 22° 56° (NE) 01:09:04 437.475
JAS-2 07 Dec 01:11:39 01:16:29 40° 293° (WNW) 01:21:27 435.910
M-CUBED/EXP-1 PRIME 07 Dec 01:14:44 01:18:31 32° 60° (ENE) 01:22:33 437.505
POPSAT HIP 1 07 Dec 01:21:03 01:24:54 33° 292° (WNW) 01:28:40 437.405
O/OREOS (USA 219) 07 Dec 01:22:10 01:26:23 39° 57° (ENE) 01:30:34 437.305
PHONESAT 2.4 07 Dec 01:23:27 01:24:54 14° 165° (SSE) 01:26:21 2401.200-2431.200
Cosmos 2499 07 Dec 01:39:17 01:47:57 79° 280° (W) 01:56:56 435.465 / 435.565
TISAT 1 07 Dec 01:43:24 01:47:32 50° 260° (W) 01:51:42 437.305
DX 1 07 Dec 01:47:59 01:49:37 12° 272° (W) 01:51:15 434.975-435.025
UKube-1 07 Dec 01:52:33 01:54:43 14° 271° (W) 01:56:54 .
BUGSAT 1 07 Dec 01:54:07 01:58:04 40° 291° (WNW) 02:01:57 437.445
SWISSCUBE 07 Dec 02:04:02 02:08:45 63° 72° (ENE) 02:13:29 437.505
BEESAT 07 Dec 02:07:58 02:12:40 62° 72° (ENE) 02:17:25 436.000
Oscar 19 07 Dec 02:10:45 02:15:57 66° 102° (ESE) 02:21:07 437.125/150
Gurwin Techsat 1B 07 Dec 02:14:48 02:19:46 38° 97° (E) 02:24:42 435.225
AO-85 07 Dec 02:15:20 02:19:56 42° 120° (ESE) 02:24:14 145.980
NANOSAT C BR1 07 Dec 02:16:56 02:18:23 12° 303° (WNW) 02:19:49 145.865
AUBIESAT-1 07 Dec 02:35:35 02:39:40 50° 255° (WSW) 02:44:02 437.475
ITUPSAT 1 07 Dec 02:36:16 02:41:03 75° 257° (WSW) 02:45:51 437.325
ITAMSAT 1 07 Dec 02:42:33 02:45:48 17° 89° (E) 02:49:04 435.822/435.867
GONETS M04 07 Dec 02:44:49 02:52:54 41° 291° (WNW) 03:01:02
M-CUBED/EXP-1 PRIME 07 Dec 02:49:15 02:52:58 31° 260° (W) 02:56:56 437.505
PHONESAT 2.4 07 Dec 02:57:35 02:59:35 19° 182° (S) 03:01:35 2401.200-2431.200
O/OREOS (USA 219) 07 Dec 03:01:54 03:05:37 26° 256° (WSW) 03:09:18 437.305
MOZHAYETS 4 07 Dec 03:05:12 03:09:41 56° 72° (ENE) 03:14:10
CUBESAT XI-V 07 Dec 03:13:34 03:15:35 13° 57° (ENE) 03:17:37 437.345
SO-50 07 Dec 03:20:31 03:24:04 22° 33° (NNE) 03:27:34 436.795
KKS-1 07 Dec 03:28:02 03:32:16 43° 69° (ENE) 03:36:32 437.445
STARS 07 Dec 03:31:49 03:35:25 25° 64° (ENE) 03:39:01 437.465
Cosmos 2499 07 Dec 03:36:21 03:42:41 21° 304° (NW) 03:49:08 435.465 / 435.565
AO-7 07 Dec 03:38:38 03:46:12 36° 96° (E) 03:53:43 29.400- 29.500
SWISSCUBE 07 Dec 03:43:54 03:46:59 17° 270° (W) 03:50:04 437.505
BEESAT 07 Dec 03:47:45 03:50:53 17° 270° (W) 03:54:02 436.000
Oscar 19 07 Dec 03:51:01 03:54:48 21° 301° (WNW) 03:58:34 437.125/150
Gurwin Techsat 1B 07 Dec 03:54:54 03:59:39 34° 295° (WNW) 04:04:22 435.225
AO-85 07 Dec 03:56:09 04:00:27 33° 317° (NW) 04:04:30 145.980
ITAMSAT 1 07 Dec 04:20:39 04:25:50 73° 288° (WNW) 04:30:59 435.822/435.867
YUBILEINY 07 Dec 04:20:41 04:25:41 16° 51° (NE) 04:30:39 435.215
BRITE-PL 07 Dec 04:26:24 04:28:49 13° 86° (E) 04:31:16 437.365/2234.400
BEESAT 3 07 Dec 04:26:39 04:28:27 13° 110° (ESE) 04:30:17 437.485
PHONESAT 2.4 07 Dec 04:33:13 04:34:15 12° 198° (SSW) 04:35:16 2401.200-2431.200
MOZHAYETS 4 07 Dec 04:44:05 04:47:12 18° 269° (W) 04:50:19
CUBESAT XI-V 07 Dec 04:47:40 04:52:16 89° 62° (ENE) 04:56:54 437.345
Cosmos 2504 07 Dec 04:48:18 04:51:14 12° 44° (NE) 04:54:07 435.465 / 435.565
BEESAT 2 07 Dec 04:58:09 04:59:59 13° 110° (ESE) 05:01:51 435.950
SO-50 07 Dec 05:00:32 05:05:06 80° 234° (SW) 05:09:33 436.795
KKS-1 07 Dec 05:05:31 05:09:01 22° 267° (W) 05:12:32 437.445
STARS 07 Dec 05:07:24 05:11:34 40° 262° (W) 05:15:47 437.465
AO-7 07 Dec 05:31:10 05:39:22 61° 297° (WNW) 05:47:33 29.400- 29.500
GOMX 1 07 Dec 05:33:20 05:37:39 23° 90° (E) 05:41:56 467.674
STRAND 1 07 Dec 05:39:04 05:42:25 18° 58° (ENE) 05:45:47 437.568
DOVE 4 07 Dec 05:40:13 05:41:45 11° 83° (E) 05:43:17 437.250
AO-85 07 Dec 05:41:22 05:42:10 10° 340° (NNW) 05:42:58 145.980
AIST 1 07 Dec 06:01:28 06:04:14 16° 66° (ENE) 06:06:58
BEESAT 3 07 Dec 06:01:38 06:05:31 73° 308° (NW) 06:09:30 437.485
ITAMSAT 1 07 Dec 06:02:14 06:04:25 13° 307° (NW) 06:06:35 435.822/435.867
BRITE-PL 07 Dec 06:02:34 06:07:59 81° 101° (ESE) 06:13:40 437.365/2234.400
CUTE-I 07 Dec 06:03:27 06:07:25 21° 91° (E) 06:11:20 437.470
HORYU 2 07 Dec 06:06:22 06:10:48 63° 102° (ESE) 06:15:10 437.375
YUBILEINY 07 Dec 06:15:52 06:24:39 63° 76° (ENE) 06:33:23 435.215
LilacSat-2 07 Dec 06:20:51 06:24:04 26° 95° (E) 06:27:17 437.200
NOAA 15 07 Dec 06:21:56 06:26:39 32° 96° (E) 06:31:20 137.62
NOAA 18 07 Dec 06:22:34 06:26:33 20° 91° (E) 06:30:28 137.9125
RS-15 07 Dec 06:26:02 06:35:07 27° 100° (E) 06:44:26 29.354- 29.394
CUBESAT XI-V 07 Dec 06:29:07 06:30:19 11° 274° (W) 06:31:32 437.345
Cubesat XI-IV 07 Dec 06:29:14 06:34:04 33° 96° (E) 06:38:51 437.490
BEESAT 2 07 Dec 06:33:16 06:37:13 74° 309° (NW) 06:41:14 435.950
Cosmos 2504 07 Dec 06:38:59 06:47:27 47° 70° (ENE) 06:55:28 435.465 / 435.565
HO-68 07 Dec 06:42:56 06:44:38 11° 82° (E) 06:46:19 435.675
SO-50 07 Dec 06:43:50 06:44:44 11° 253° (WSW) 06:45:38 436.795
Cosmos 2491 07 Dec 06:48:12 06:56:20 45° 87° (E) 07:04:28 435.465 / 435.565
CINEMA 3 07 Dec 06:49:44 06:51:38 12° 85° (E) 06:53:32 145.822/145.860
GOMX 1 07 Dec 07:10:40 07:16:03 59° 288° (WNW) 07:21:26 467.674
DOVE 4 07 Dec 07:14:59 07:20:20 77° 102° (ESE) 07:25:30 437.250
STRAND 1 07 Dec 07:15:53 07:21:01 77° 256° (WSW) 07:26:11 437.568
AO-7 07 Dec 07:25:22 07:30:33 18° 319° (NW) 07:35:43 29.400- 29.500
AIST 2 07 Dec 07:35:16 07:37:47 16° 111° (ESE) 07:40:20 435.215
AIST 1 07 Dec 07:37:53 07:42:15 59° 265° (W) 07:46:34
BEESAT 3 07 Dec 07:41:36 07:43:52 15° 329° (NNW) 07:46:08 437.485
BRITE-PL 07 Dec 07:42:15 07:45:53 19° 300° (WNW) 07:49:38 437.365/2234.400
CUTE-I 07 Dec 07:42:37 07:47:53 61° 289° (WNW) 07:53:06 437.470
HORYU 2 07 Dec 07:44:03 07:46:53 17° 300° (WNW) 07:49:43 437.375
LilacSat-2 07 Dec 07:55:08 07:58:19 26° 293° (WNW) 08:01:28 437.200
NOAA 15 07 Dec 08:01:36 08:06:29 40° 294° (WNW) 08:11:22 137.62
NOAA 18 07 Dec 08:02:11 08:07:43 68° 289° (WNW) 08:13:11 137.9125
Cubesat XI-IV 07 Dec 08:09:15 08:14:10 38° 294° (WNW) 08:19:04 437.490
CUTE 1.7 + AOD 2 07 Dec 08:10:29 08:14:31 42° 98° (E) 08:18:32 437.475
YUBILEINY 07 Dec 08:13:22 08:20:55 33° 277° (W) 08:28:28 435.215
BEESAT 2 07 Dec 08:13:23 08:15:43 15° 329° (NNW) 08:18:05 435.950
CINEMA 3 07 Dec 08:24:37 08:29:30 85° 284° (WNW) 08:34:08 145.822/145.860
HO-68 07 Dec 08:26:42 08:33:51 61° 102° (ESE) 08:40:57 435.675
AAUSAT CUBESAT 2 07 Dec 08:28:13 08:31:39 24° 94° (E) 08:35:03 437.432
CANX-2 07 Dec 08:28:40 08:32:54 77° 102° (ESE) 08:37:07 2200.000
Cosmos 2504 07 Dec 08:32:37 08:40:51 46° 273° (W) 08:48:42 435.465 / 435.565
TIGRISAT 07 Dec 08:33:45 08:36:16 15° 59° (ENE) 08:38:46 435.000
RS-15 07 Dec 08:33:59 08:45:51 86° 124° (SE) 08:58:17 29.354- 29.394
CUBEBUG 2 07 Dec 08:34:17 08:38:16 32° 95° (E) 08:42:07 437.445
ANTELSAT 07 Dec 08:35:17 08:38:02 16° 60° (ENE) 08:40:46 437.575/2403.000
PRISM 07 Dec 08:42:02 08:46:02 61° 72° (ENE) 08:50:06 437.425
Cosmos 2491 07 Dec 08:44:47 08:53:10 47° 289° (WNW) 09:01:33 435.465 / 435.565
SEEDS 07 Dec 08:51:23 08:55:35 80° 101° (E) 08:59:47 437.485
GOMX 1 07 Dec 08:51:30 08:53:02 11° 307° (NW) 08:54:36 467.674
Oscar 11 07 Dec 08:52:28 08:55:30 19° 91° (E) 08:58:32 145.826/435.025
DOVE 4 07 Dec 08:53:47 08:57:22 19° 301° (WNW) 09:00:55 437.250
COMPASS 1 07 Dec 08:59:19 09:03:28 66° 102° (ESE) 09:07:36 437.405
STRAND 1 07 Dec 09:00:08 09:01:03 10° 275° (W) 09:01:59 437.568
AO-85 07 Dec 09:04:24 09:07:00 16° 31° (NNE) 09:09:31 145.980
AIST 2 07 Dec 09:11:41 09:15:46 65° 310° (NW) 09:19:57 435.215
UWE-3 07 Dec 09:13:49 09:18:05 53° 100° (E) 09:22:12 435.000/436.395/437.385
DELFI C3 07 Dec 09:16:57 09:18:21 12° 88° (E) 09:19:44 145.870
CUTE-I 07 Dec 09:25:26 09:26:53 11° 309° (NW) 09:28:20 437.470
Cosmos 2499 07 Dec 09:36:47 09:40:01 12° 45° (NE) 09:43:13 435.465 / 435.565
UNISAT 6 07 Dec 09:38:12 09:42:47 56° 72° (ENE) 09:47:20 437.425
JAS-2 07 Dec 09:43:13 09:47:38 21° 60° (ENE) 09:51:46 435.910
NOAA 18 07 Dec 09:44:56 09:47:22 13° 309° (NW) 09:49:49 137.9125
CUTE 1.7 + AOD 2 07 Dec 09:46:55 09:50:06 21° 296° (WNW) 09:53:17 437.475
ZACube-1 07 Dec 09:51:53 09:56:09 84° 102° (ESE) 10:00:19 437.345
CUSAT 1 07 Dec 09:52:39 09:55:35 60° 100° (E) 09:58:13 437.405
FUNcube-1 07 Dec 09:58:48 10:03:03 89° 299° (WNW) 10:07:13 145.935
NANOSAT C BR1 07 Dec 10:01:03 10:02:50 12° 58° (ENE) 10:04:38 145.865
AAUSAT CUBESAT 2 07 Dec 10:03:26 10:07:11 34° 291° (WNW) 10:10:55 437.432
CINEMA 3 07 Dec 10:03:36 10:05:48 13° 304° (NW) 10:07:59 145.822/145.860
CANX-2 07 Dec 10:06:14 10:08:11 13° 300° (WNW) 10:10:07 2200.000
QB50P2 07 Dec 10:07:17 10:09:55 16° 61° (ENE) 10:12:34 145.880/145.840
TIGRISAT 07 Dec 10:07:39 10:12:21 82° 257° (WSW) 10:17:00 435.000
POLYITAN 1 07 Dec 10:07:53 10:10:26 16° 60° (ENE) 10:12:59 437.675
ANTELSAT 07 Dec 10:09:30 10:14:12 75° 258° (WSW) 10:18:50 437.575/2403.000
CUBEBUG 2 07 Dec 10:11:01 10:14:49 28° 294° (WNW) 10:18:28 437.445
HO-68 07 Dec 10:14:58 10:21:13 33° 302° (WNW) 10:27:27 435.675
PRISM 07 Dec 10:19:42 10:21:44 13° 270° (W) 10:23:48 437.425
QB50P1 07 Dec 10:19:48 10:22:54 20° 63° (ENE) 10:26:00 145.935-145.965
DUCHIFAT 1 07 Dec 10:21:16 10:24:08 18° 62° (ENE) 10:27:00 145.980
Oscar 11 07 Dec 10:27:46 10:31:54 48° 289° (WNW) 10:36:02 145.826/435.025
SEEDS 07 Dec 10:28:56 10:30:41 12° 301° (WNW) 10:32:26 437.485
COMPASS 1 07 Dec 10:36:16 10:38:31 14° 299° (WNW) 10:40:47 437.405
POPSAT HIP 1 07 Dec 10:40:41 10:44:25 30° 67° (ENE) 10:48:10 437.405
AO-85 07 Dec 10:44:02 10:48:05 84° 53° (NE) 10:51:58 145.980
RS-15 07 Dec 10:48:33 10:59:55 44° 333° (NNW) 11:11:36 29.354- 29.394
DELFI C3 07 Dec 10:49:38 10:53:37 68° 286° (WNW) 10:57:34 145.870
Cosmos 2491 07 Dec 10:50:18 10:52:49 11° 316° (NW) 10:55:21 435.465 / 435.565
DANDE 07 Dec 10:50:53 10:55:11 80° 102° (ESE) 10:58:29 436.750
UWE-3 07 Dec 10:51:13 10:54:07 18° 299° (WNW) 10:57:00 435.000/436.395/437.385
AIST 2 07 Dec 10:52:41 10:55:04 15° 331° (NNW) 10:57:28 435.215
GONETS M04 07 Dec 10:53:42 11:01:12 31° 64° (ENE) 11:08:41
HUMSAT D 07 Dec 11:07:30 11:11:36 84° 285° (WNW) 11:15:40 437.325/437.525
ESTCUBE 1 07 Dec 11:08:44 11:11:36 16° 90° (E) 11:14:28 437.505/2401.250
BUGSAT 1 07 Dec 11:11:49 11:15:11 23° 64° (ENE) 11:18:34 437.445
